User: anonymous   Login
Location: Unspecified
(0.0000°N, 0.0000°E)
Time: 16:43:24
(UTC+00:00)
Language:

NOSS 7 (D) - Orbit

View from above orbital plane
View from above orbital plane
View from above satellite
View from above satellite

Ground track
Ground track

The orbit data is extracted from the following two-line orbital elements,

1 16623U 86014D   17067.19304580 0.00000300  00000-0  41442-4 0    03
2 16623  63.3130  98.1811 0874941  56.2096 303.7904 13.44922997    01
Epoch (UTC): 08 March 2017 04:37:59
Eccentricity: 0.0874941
inclination: 63.3130°
perigee height: 437 km
apogee height: 1744 km
right ascension of ascending node: 98.1811°
argument of perigee: 56.2096°
revolutions per day: 13.44922997
mean anomaly at epoch: 303.7904°
orbit number at epoch: 0

The dashed part of the orbit path shows where the satellite is in the earth's shadow,  

DLR